DECAYED

CERES-1 R/B, 60751 (Decayed)

Orbit data source: Space-Track

CERES-1 R/B, 60751 was space debris in LEO originally from a launch on Thu, 29 Aug 2024 UTC launched from the Yellow Sea Launch Area, China (YSLA). Debris objects in space refer to the collection of defunct objects orbiting the Earth. Examples of debris include non-operational satellites, rocket bodies, and fragments generated from explosions, collisions, or faulty payload assembly.

Not visible in the next 10 days
Identifier
60751, 2024-153G
Orbit
Decayed
Last TLE update
6 months ago
Origin
Flag of CNGalactic Energy Co. (CN / PRC)
Manufacturer
Xinghe Dongli
Mission
Decayed spacecraft
Bus & Motor
EDGE, EDGE
Mass
150 kg wet, ~150 kg dry
Launch date (UTC)
2024-08-29 (10 months ago)
Launch vehicle
Unknown
Launch site
Yellow Sea Launch Area, China (YSLA)
Object type
Payload
Rocket body
Debris
Shape & HBR
Cyl, 1.2 m
Radar Cross Section
1.602 m², Large (>1 m²)

Expand to show TLE details & history

TLE from 6 months ago
0 CERES-1 R/B
1 60751U 24153G   24358.01649696  .15937085  27715-5  21901-3 0  9998
2 60751  97.6177 126.6125 0020523 285.1284 187.3470 16.47527681 18199
Epoch: 2024-12-23T00:23Z
TLE epoch observation values (Epoch: 2024-12-23T00:23:45.337Z)
Latitude
66.45429°
Longitude
-133.60401°
Altitude
170.662 km
Speed
7.802 km/s
True Right ascension
21h 37m 31s
True Declination
66° 19' 00"
Sunlit
Object was in daylight at epoch
Visualization orbit readout
Visualization observer readout
Orbital elements
Apogee altitude
156.045 km
Perigee altitude
129.279 km
Semi-major axis
6,520.799 km
Eccentricity
0.00205
Inclination
97.6177°
RAAN
126.6125°
Arg. of periapsis
285.1284°
True anomaly
Unknown
Mean anomaly
187.347°
Eccentric anomaly
Unknown
Mean motion
4.12185 °/min
Orbital period
87.34 mins
BSTAR
0.00021901
Loading maneuver chart data...
Loading SW <> Apogee altitude chart data...
Loading historical data...
Loading historical data...
Loading historical data...
Loading historical data...
Loading historical data...
Loading historical data...
Loading historical data...

CERES-1 R/B Visibility

Observer location: undefined°, undefined°

This satellite is decayed
Span
Click to sort rows by Start time (UTC) header in descending order
Start Az.
Max El. time (UTC)
Max El. Az.
Max El.
End time (UTC)
End Az.
|